TimeCDT,TemperatureF,Dew PointF,Humidity,Sea Level PressureIn,VisibilityMPH,Wind Direction,Wind SpeedMPH,Gust SpeedMPH,PrecipitationIn,Events,Conditions,WindDirDegrees,DateUTC
12:15 AM,33.8,21.2,60,30.19,10.0,SW,5.8,-,N/A,,Clear,230,2013-03-30 05:15:00
12:35 AM,33.8,21.2,60,30.19,10.0,WSW,6.9,-,N/A,,Clear,240,2013-03-30 05:35:00
12:55 AM,33.8,21.2,60,30.19,10.0,SW,5.8,-,N/A,,Clear,230,2013-03-30 05:55:00
1:15 AM,32.0,19.4,60,30.19,10.0,SW,5.8,-,N/A,,Clear,230,2013-03-30 06:15:00
1:35 AM,32.0,21.2,64,30.19,10.0,SW,5.8,-,N/A,,Clear,230,2013-03-30 06:35:00
1:55 AM,32.0,21.2,64,30.18,10.0,WSW,5.8,-,N/A,,Clear,240,2013-03-30 06:55:00
2:15 AM,32.0,21.2,64,30.18,10.0,WSW,5.8,-,N/A,,Clear,240,2013-03-30 07:15:00
2:35 AM,32.0,21.2,64,30.18,10.0,SW,6.9,-,N/A,,Clear,230,2013-03-30 07:35:00
2:55 AM,30.2,21.2,69,30.17,10.0,SW,5.8,-,N/A,,Clear,230,2013-03-30 07:55:00
3:15 AM,30.2,21.2,69,30.16,10.0,SW,4.6,-,N/A,,Clear,230,2013-03-30 08:15:00
3:35 AM,30.2,19.4,64,30.15,10.0,SSW,4.6,-,N/A,,Clear,210,2013-03-30 08:35:00
3:55 AM,30.2,21.2,69,30.14,10.0,SW,4.6,-,N/A,,Clear,220,2013-03-30 08:55:00
4:15 AM,30.2,21.2,69,30.14,10.0,WSW,5.8,-,N/A,,Clear,240,2013-03-30 09:15:00
4:35 AM,30.2,19.4,64,30.13,10.0,SW,5.8,-,N/A,,Clear,230,2013-03-30 09:35:00
4:55 AM,30.2,21.2,69,30.12,10.0,SW,5.8,-,N/A,,Clear,220,2013-03-30 09:55:00
5:15 AM,30.2,19.4,64,30.11,10.0,SSW,6.9,-,N/A,,Clear,210,2013-03-30 10:15:00
5:35 AM,30.2,19.4,64,30.11,10.0,SW,6.9,-,N/A,,Clear,220,2013-03-30 10:35:00
5:55 AM,30.2,21.2,69,30.11,10.0,SSW,6.9,-,N/A,,Scattered Clouds,210,2013-03-30 10:55:00
6:15 AM,32.0,21.2,64,30.11,10.0,SW,6.9,-,N/A,,Overcast,230,2013-03-30 11:15:00
6:35 AM,32.0,21.2,64,30.10,10.0,SW,6.9,-,N/A,,Overcast,220,2013-03-30 11:35:00
6:55 AM,32.0,21.2,64,30.10,10.0,SW,5.8,-,N/A,,Overcast,220,2013-03-30 11:55:00
7:15 AM,32.0,21.2,64,30.10,10.0,SW,5.8,-,N/A,,Overcast,220,2013-03-30 12:15:00
7:55 AM,33.8,21.2,60,30.09,10.0,SW,8.1,-,N/A,,Overcast,230,2013-03-30 12:55:00
8:15 AM,33.8,21.2,60,30.09,10.0,SSW,6.9,-,N/A,,Mostly Cloudy,210,2013-03-30 13:15:00
8:35 AM,35.6,21.2,56,30.08,10.0,SW,5.8,-,N/A,,Overcast,220,2013-03-30 13:35:00
8:55 AM,35.6,23.0,60,30.07,10.0,SSW,9.2,-,N/A,,Overcast,210,2013-03-30 13:55:00
9:15 AM,37.4,23.0,56,30.05,10.0,South,10.4,-,N/A,,Overcast,190,2013-03-30 14:15:00
9:55 AM,37.4,23.0,56,30.02,10.0,South,8.1,-,N/A,,Overcast,180,2013-03-30 14:55:00
10:15 AM,39.2,23.0,52,30.02,10.0,SSW,9.2,-,N/A,,Overcast,200,2013-03-30 15:15:00
10:35 AM,39.2,21.2,49,30.01,10.0,SSW,9.2,-,N/A,,Overcast,200,2013-03-30 15:35:00
10:55 AM,39.2,23.0,52,30.01,10.0,SSW,10.4,-,N/A,,Overcast,200,2013-03-30 15:55:00
11:15 AM,39.2,24.8,56,30.00,10.0,SW,10.4,16.1,N/A,,Overcast,220,2013-03-30 16:15:00
11:35 AM,39.2,24.8,56,30.01,10.0,SW,9.2,-,N/A,,Overcast,230,2013-03-30 16:35:00
11:55 AM,39.2,24.8,56,30.00,10.0,SSW,10.4,-,N/A,,Overcast,200,2013-03-30 16:55:00
12:35 PM,41.0,23.0,49,29.99,10.0,SSW,12.7,-,N/A,,Overcast,210,2013-03-30 17:35:00
12:55 PM,41.0,23.0,49,29.98,10.0,SW,10.4,-,N/A,,Overcast,220,2013-03-30 17:55:00
1:15 PM,41.0,21.2,45,29.97,10.0,SSW,6.9,-,N/A,,Overcast,210,2013-03-30 18:15:00
1:35 PM,39.2,24.8,56,29.96,10.0,SSW,12.7,-,N/A,,Overcast,210,2013-03-30 18:35:00
2:15 PM,39.2,26.6,61,29.94,10.0,SSW,9.2,-,N/A,,Overcast,200,2013-03-30 19:15:00
2:35 PM,37.4,28.4,70,29.93,7.0,SSW,9.2,-,N/A,,Overcast,200,2013-03-30 19:35:00
2:55 PM,37.4,30.2,75,29.92,7.0,South,11.5,-,N/A,,Overcast,180,2013-03-30 19:55:00
3:15 PM,37.4,30.2,75,29.89,10.0,South,12.7,-,N/A,,Overcast,180,2013-03-30 20:15:00
3:35 PM,39.2,32.0,75,29.89,9.0,South,8.1,16.1,N/A,,Overcast,180,2013-03-30 20:35:00
3:55 PM,37.4,30.2,75,29.88,9.0,South,9.2,-,0.02,,Overcast,190,2013-03-30 20:55:00
4:15 PM,35.6,32.0,87,29.88,7.0,South,10.4,-,0.02,,Overcast,180,2013-03-30 21:15:00
4:35 PM,35.6,32.0,87,29.87,7.0,South,8.1,-,0.03,,Overcast,180,2013-03-30 21:35:00
4:55 PM,37.4,33.8,87,29.87,5.0,South,6.9,-,0.05,,Overcast,190,2013-03-30 21:55:00
5:15 PM,35.6,33.8,93,29.86,5.0,SSW,9.2,-,0.01,,Overcast,200,2013-03-30 22:15:00
5:35 PM,35.6,33.8,93,29.85,5.0,South,10.4,-,0.03,,Overcast,190,2013-03-30 22:35:00
5:55 PM,35.6,33.8,93,29.86,5.0,SSW,3.5,-,0.05,,Overcast,200,2013-03-30 22:55:00
6:15 PM,37.4,33.8,87,29.85,5.0,Calm,Calm,-,0.03,,Overcast,0,2013-03-30 23:15:00
6:35 PM,35.6,33.8,93,29.84,7.0,SSW,4.6,-,0.04,,Overcast,200,2013-03-30 23:35:00
6:55 PM,35.6,33.8,93,29.83,5.0,SSW,6.9,-,0.04,,Overcast,210,2013-03-30 23:55:00
7:15 PM,35.6,33.8,93,29.83,5.0,SSW,8.1,-,N/A,,Overcast,210,2013-03-31 00:15:00
7:35 PM,35.6,33.8,93,29.81,4.0,SSW,8.1,-,0.01,,Overcast,210,2013-03-31 00:35:00
7:55 PM,35.6,35.6,100,29.81,5.0,SW,6.9,-,0.01,,Overcast,230,2013-03-31 00:55:00
8:15 PM,39.2,35.6,87,29.80,4.0,WSW,5.8,-,N/A,,Overcast,240,2013-03-31 01:15:00
8:35 PM,37.4,35.6,93,29.79,2.5,SW,6.9,-,N/A,,Overcast,230,2013-03-31 01:35:00
8:55 PM,35.6,35.6,100,29.80,1.8,Calm,Calm,-,N/A,,Overcast,0,2013-03-31 01:55:00
9:15 PM,33.8,33.8,100,29.80,1.2,WNW,3.5,-,N/A,,Overcast,300,2013-03-31 02:15:00
9:35 PM,37.4,35.6,93,29.79,1.2,WSW,5.8,-,N/A,,Overcast,240,2013-03-31 02:35:00
9:55 PM,37.4,37.4,100,29.79,1.0,Calm,Calm,-,N/A,,Overcast,0,2013-03-31 02:55:00
10:15 PM,35.6,35.6,100,29.79,0.8,Calm,Calm,-,N/A,,Overcast,0,2013-03-31 03:15:00
10:35 PM,37.4,35.6,93,29.78,0.8,Calm,Calm,-,N/A,,Overcast,0,2013-03-31 03:35:00
10:55 PM,35.6,33.8,93,29.77,0.8,Calm,Calm,-,N/A,,Overcast,0,2013-03-31 03:55:00
11:15 PM,35.6,35.6,100,29.77,1.2,West,3.5,-,N/A,,Overcast,280,2013-03-31 04:15:00
11:35 PM,35.6,35.6,100,29.76,1.2,West,5.8,-,N/A,,Overcast,280,2013-03-31 04:35:00
11:55 PM,35.6,35.6,100,29.76,1.5,West,4.6,-,N/A,,Overcast,270,2013-03-31 04:55:00